Regional Weather Roundup
Issued by NWS Upton, NY

Current Version | Previous Version | Graphics & Text | Print | Product List | Glossary Off
Versions: 1 2 3 4 5 6 7 8 9 10 11 12 13 14 15 16 17 18 19 20 21 22 23 24 25 26 27 28 29 30 31 32 33 34 35 36 37 38 39 40 41 42 43 44 45 46 47 48 49 50

000
ASUS41 KOKX 211805
RWROKX

REGIONAL WEATHER ROUNDUP
NATIONAL WEATHER SERVICE NEW YORK NY
200 PM EDT THU AUG 21 2014

NOTE: "FAIR" INDICATES FEW OR NO CLOUDS BELOW 12,000 FEET WITH NO
SIGNIFICANT WEATHER AND/OR OBSTRUCTIONS TO VISIBILITY.

NYZ071-072-176-178-NJZ106-104-211900-
NEW YORK CITY METRO AREA


CITY           SKY/WX    TMP DP  RH WIND       PRES   REMARKS
CENTRAL PARK   MOSUNNY   82  63  52 S7        30.06F
LAGUARDIA APRT PTSUNNY   80  61  52 S7        30.04S
KENNEDY INTL   MOSUNNY   78  62  57 SE9       30.06F
NEWARK/LIBERTY PTSUNNY   79  66  64 SE12G17   30.04S
BRNX BOT. GARD   N/A    N/A N/A N/A SE8       30.06S
TETERBORO      MOSUNNY   81  61  50 S10G16    30.02F
$$

NYZ177-179-078>081-211900-
LONG ISLAND NEW YORK

CITY           SKY/WX    TMP DP  RH WIND       PRES   REMARKS
FARMINGDALE    CLOUDY    75  56  51 SE10      30.06S
ISLIP          PTSUNNY   75  63  66 SE10      30.05S
SHIRLEY        CLOUDY    76  62  62 S12       30.08R
WESTHAMPTON    SUNNY     76  62  62 SE12      30.08S
MONTAUK POINT    N/A     74  63  68 E8        30.09S
$$

NYZ052-065-067-211900-
HUDSON VALLEY

CITY           SKY/WX    TMP DP  RH WIND       PRES   REMARKS
WHITE PLAINS   MOSUNNY   79  64  60 S12       30.05S
NEWBURGH       PTSUNNY   79  64  61 S9        30.04F
MONTGOMERY     CLOUDY    80  61  52 SW9       30.02F
POUGHKEEPSIE   CLOUDY    77  63  61 S6        30.02F
ALBANY         LGT RAIN  75  65  70 S10       30.01F
$$

NJZ001-105-106-008-010-013-015-019>022-104-211900-
NEW JERSEY

CITY           SKY/WX    TMP DP  RH WIND       PRES   REMARKS
NEWARK/LIBERTY PTSUNNY   79  66  64 SE12G17   30.04S
TETERBORO      MOSUNNY   81  61  50 S10G16    30.02F
CALDWELL       PTSUNNY   79  59  50 VRB3      30.03F
MORRISTOWN     PTSUNNY   82  59  44 SW8       30.03F
SOMERVILLE     CLOUDY    83  59  44 S6        30.01F
LINDEN         FAIR      84  68  58 SE14      30.05F
SUSSEX         CLOUDY    80  63  55 VRB5      30.03F
ANDOVER          N/A     78  64  61 SW9       30.04F
TRENTON        MOSUNNY   83  58  42 SE10G20   30.02F
MILLVILLE      PTSUNNY   81  67  62 SW5       30.03F
ATLANTIC CITY  MOSUNNY   80  63  55 SE8       30.05S
WRIGHTSTOWN    CLOUDY    84  61  46 VRB6      30.01S
TOMS RIVER     MOSUNNY   81  63  54 SE9       30.05S
BELMAR         PTSUNNY   77  61  57 SE9       30.05F
$$

PAZ047>061-062-071-211900-
EASTERN PENNSYLVANIA

CITY           SKY/WX    TMP DP  RH WIND       PRES   REMARKS
PHILADELPHIA   PTSUNNY   82  68  62 S5        30.02F
ALLENTOWN      PTSUNNY   80  67  64 VRB3      30.02F
SCRANTON       MOSUNNY   84  64  50 SW9G16    30.01F
$$

CTZ002-004>006-009-010-012-RIZ004-006-007-MAZ004-011-015-211900-
SOUTHERN NEW ENGLAND
 IN CT

CITY           SKY/WX    TMP DP  RH WIND       PRES   REMARKS
BRADLEY INTL   CLOUDY    78  63  59 N7        30.05S
HARTFORD       CLOUDY    79  60  52 S6        30.04F
DANBURY        PTSUNNY   76  63  64 SE7       30.06F
WTRBRY/OXFORD  PTSUNNY   75  61  60 S10       30.09S
BRIDGEPORT     CLOUDY    76  58  53 E10       30.06S
MERIDEN        CLOUDY    78  61  55 S8        30.05F
NEW HAVEN      CLOUDY    75  62  64 SE7       30.07S
CHESTER        FAIR      75  63  64 SE6       30.08F
GROTON         PTSUNNY   73  66  78 SE10      30.06F
WILLIMANTIC    MOSUNNY   78  55  44 VRB6      30.07S

 IN RI

CITY           SKY/WX    TMP DP  RH WIND       PRES   REMARKS
PROVIDENCE     PTSUNNY   78  61  55 CALM      30.06F
BLOCK ISLAND   SUNNY     73  64  73 E8        30.08F
WESTERLY       PTSUNNY   74  61  63 SE13      30.08S

 IN MA

CITY           SKY/WX    TMP DP  RH WIND       PRES   REMARKS
BOSTON         PTSUNNY   71  63  75 E10       30.09R
WORCESTER      CLOUDY    70  54  56 CALM      30.11S
WESTFIELD      CLOUDY    70  65  84 NE5       30.07S
PROVINCETOWN   SUNNY     73  64  73 MISG      30.09S
NANTUCKET      CLOUDY    71  62  73 NE12      30.07R
$$

ANZ330-335-338-340-345-350-353-355-211900-
COASTAL MARINE OBSERVATIONS


STATION/POSITION TIME  SKY/WX   TEMP    WIND        PRES    VSBY  WAVE
                                AIR SEA DIR/SP/G                  HT/PER
                 (UTC)          (F)     (DEG/KT/KT) (MB)    (MI)  (FT/S)
NY HARB ENTRANCE NOT AVBL
4S FIRE IS       NOT AVBL
23SW MTP         1800            70 70              1018.1          3/ 7
HUDSON CANYON    1800            71 74   40/  6/  8 1017.8          3/ 7
EXECUTION ROCKS  1800            76 74   80/  8/ 12   N/A
WESTERN LI SOUND 1800            74      70/ 10/ 12   N/A           1
CENTRAL LI SOUND 1700            70 73   70/  6/  8   N/A           1
EASTERN LI SOUND 1700            70 70  150/ 10/ 12   N/A
ROBBINS REEF     1800            73     170/ 13/ 15   N/A
$$


>>>>>>>>>>>>>>>>>>>>>>>>>>>> KEY <<<<<<<<<<<<<<<<<<<<<<<<<<<
>                                                          <
>     SKY/WX - SKY CONDITION/PRESENT WEATHER               <
>     TMP    - TEMPERATURE IN FAHRENHEIT                   <
>     DP     - DEWPOINT IN FAHRENHEIT                      <
>     RH     - RELATIVE HUMIDITY IN PERCENT                <
>     WIND   - DIRECTION AND SPEED IN MPH                  <
>     PRES   - MEAN SEA LEVEL PRESSURE IN INCHES OF HG     <
>     WCI    - WIND CHILL INDEX                            <
>     VSB    - VISIBILITY IN MILES                         <
>     HX     - HEAT INDEX                                  <
>     TC     - TEMPERATURE IN CELSIUS                      <
>     VRB    - VARIABLE WIND DIRECTION                     <
>                                                          <
>>>>>>>>>>>>>>>>>>>>>>>>>>>> KEY <<<<<<<<<<<<<<<<<<<<<<<<<<<





USA.gov is the U.S. government's official web portal to all federal, state and local government web resources and services.